FW7996 Weather Reports


Display with metric or nautical units.
time (UTC)temp
F
wind
direction
speed
MPH
gust
MPH
rain 1hr
in
rain 24hr
in
rain mn
in
humidity
%
barometer
mb
20260510215548 74 191 8.0 10.0 0.00 0.02 0.00 89 1016.2
20260510214523 74 189 7.0 10.0 0.00 0.02 0.00 88 1016.2
20260510213523 74 182 6.0 8.0 0.00 0.02 0.00 87 1016.2
20260510212543 74 176 6.0 8.0 0.00 0.02 0.00 87 1016.1
20260510211523 74 181 7.0 9.0 0.00 0.02 0.00 87 1016.2
20260510210534 74 175 6.0 8.0 0.00 0.02 0.00 88 1016.1
20260510205524 74 173 7.0 9.0 0.00 0.02 0.00 88 1016.3
20260510204524 74 176 8.0 11.0 0.00 0.02 0.00 87 1016.2
20260510203549 74 177 7.0 9.0 0.00 0.02 0.00 87 1016.2
20260510202524 73 169 7.0 10.0 0.00 0.02 0.00 87 1016.2
20260510201525 73 167 7.0 12.0 0.00 0.02 0.00 87 1016.2
20260510200551 73 168 7.0 10.0 0.00 0.02 0.00 87 1016.2
20260510195550 73 160 9.0 11.0 0.00 0.02 0.00 88 1016.2
20260510194550 73 159 9.0 11.0 0.00 0.02 0.00 88 1016.3
20260510193522 73 153 9.0 10.0 0.00 0.02 0.00 86 1016.4
20260510192525 73 155 8.0 10.0 0.00 0.02 0.00 86 1016.4
20260510191525 73 162 6.0 8.0 0.00 0.02 0.00 86 1016.6
20260510190525 73 158 7.0 10.0 0.00 0.02 0.00 87 1016.7
20260510185522 73 155 8.0 10.0 0.00 0.02 0.00 88 1016.7
20260510184523 73 160 8.0 10.0 0.00 0.02 0.00 88 1016.9
20260510183526 73 154 7.0 9.0 0.00 0.02 0.00 86 1016.9
20260510182526 73 160 7.0 10.0 0.00 0.02 0.00 87 1017.1
20260510181548 72 161 8.0 10.0 0.00 0.02 0.00 88 1017.2
20260510180523 72 153 8.0 10.0 0.00 0.02 0.00 87 1017.3
20260510175524 72 166 7.0 10.0 0.00 0.02 0.00 88 1017.3
20260510174444 72 167 8.0 11.0 0.00 0.03 0.00 88 1017.3
20260510173524 72 159 8.0 11.0 0.00 0.03 0.00 88 1017.2
20260510172524 72 148 10.0 11.0 0.00 0.03 0.00 88 1017.3
20260510171524 72 145 9.0 11.0 0.00 0.03 0.00 88 1017.2
20260510170549 72 135 8.0 9.0 0.00 0.03 0.00 89 1017.3
20260510165524 72 132 7.0 9.0 0.00 0.03 0.00 90 1017.3
20260510164549 73 138 7.0 10.0 0.00 0.04 0.00 89 1017.3
20260510163524 73 142 9.0 11.0 0.00 0.06 0.00 88 1017.3
20260510162525 73 128 9.0 11.0 0.00 0.13 0.00 84 1017.2
20260510161525 73 122 9.0 10.0 0.00 0.16 0.00 84 1017.2
20260510160446 73 114 9.0 10.0 0.00 0.22 0.00 86 1017.2
20260510155446 72 108 8.0 10.0 0.00 0.40 0.00 88 1017.2
20260510154525 72 109 9.0 11.0 0.00 0.49 0.00 87 1017.2
20260510153525 72 106 9.0 11.0 0.00 0.51 0.00 89 1017.3
20260510152522 72 110 9.0 11.0 0.00 0.66 0.00 90 1017.4
20260510151522 71 110 9.0 11.0 0.00 0.66 0.00 90 1017.2
20260510150526 71 110 9.0 10.0 0.00 0.66 0.00 91 1017.2
20260510145526 71 110 9.0 10.0 0.00 0.66 0.00 91 1017.2
20260510144523 71 111 8.0 10.0 0.00 0.66 0.00 91 1017.3
20260510143523 71 122 7.0 8.0 0.00 0.66 0.00 91 1017.4
20260510142523 72 126 5.0 7.0 0.00 0.66 0.00 90 1017.4
20260510141527 72 111 4.0 5.0 0.00 0.66 0.00 90 1017.4
20260510140523 71 92 4.0 5.0 0.00 0.66 0.00 92 1017.3
20260510135524 71 82 3.0 6.0 0.00 0.66 0.00 94 1017.3
20260510134549 71 79 4.0 10.0 0.00 0.66 0.00 96 1017.3
20260510133522 70 48 3.0 5.0 0.00 0.66 0.00 97 1017.1
20260510132522 70 87 5.0 8.0 0.00 0.66 0.00 98 1017.1
20260510131521 69 47 5.0 8.0 0.00 0.66 0.00 98 1017.1
20260510130526 69 47 4.0 6.0 0.00 0.66 0.00 99 1016.9
20260510125524 69 64 4.0 8.0 0.00 0.66 0.00 99 1016.7
20260510124558 69 35 7.0 13.0 0.00 0.66 0.00 99 1016.6
20260510123523 68 61 3.0 8.0 0.00 0.66 0.00 99 1016.4
20260510122522 68 31 6.0 10.0 0.00 0.66 0.00 99 1016.3
20260510121547 68 10 4.0 5.0 0.00 0.66 0.00 99 1016.1
20260510120523 67 305 5.0 8.0 0.00 0.66 0.00 99 1016.1
20260510115523 67 338 2.0 4.0 0.00 0.66 0.00 99 1015.9
20260510114523 67 355 3.0 4.0 0.00 0.66 0.00 99 1015.7
20260510113523 67 4 4.0 5.0 0.00 0.66 0.00 99 1015.6
20260510112523 67 4 3.0 4.0 0.00 0.66 0.00 99 1015.5
20260510111523 67 350 3.0 5.0 0.00 0.66 0.00 99 1015.4
20260510110524 67 23 9.0 14.0 0.00 0.66 0.00 99 1015.2
20260510105524 67 24 9.0 13.0 0.00 0.66 0.00 99 1015.1
20260510104524 67 26 9.0 14.0 0.00 0.66 0.00 99 1014.9
20260510103739 67 26 8.0 13.0 0.00 0.66 0.00 99 1014.8
20260510102524 67 54 5.0 9.0 0.00 0.66 0.00 99 1014.8
20260510101549 67 62 4.0 7.0 0.00 0.66 0.00 98 1014.8
20260510100524 67 65 3.0 6.0 0.00 0.66 0.00 98 1014.7
20260510095521 67 27 3.0 8.0 0.00 0.66 0.00 98 1014.7
20260510094549 68 19 4.0 10.0 0.00 0.66 0.00 98 1014.7
20260510093615 68 47 3.0 9.0 0.00 0.66 0.00 98 1014.5
20260510092525 68 51 4.0 10.0 0.00 0.66 0.00 98 1014.3
20260510091522 68 52 3.0 8.0 0.00 0.66 0.00 98 1014.2
20260510090522 69 73 3.0 6.0 0.00 0.66 0.00 98 1014.1
20260510085522 69 42 5.0 11.0 0.00 0.66 0.00 97 1013.8
20260510084550 70 37 6.0 10.0 0.00 0.66 0.00 98 1013.8
20260510083550 70 90 5.0 7.0 0.00 0.66 0.00 98 1013.5
20260510082522 70 104 6.0 8.0 0.00 0.67 0.00 98 1013.3
20260510081522 69 99 6.0 8.0 0.00 0.67 0.00 99 1013.2
20260510080523 69 98 5.0 7.0 0.00 0.67 0.00 99 1013.1
20260510075523 69 105 5.0 7.0 0.00 0.68 0.00 99 1013.1
20260510074523 68 76 4.0 6.0 0.00 0.70 0.00 99 1013.2
20260510073548 68 107 5.0 6.0 0.00 0.70 0.00 99 1013.3
20260510072523 68 76 4.0 11.0 0.00 0.71 0.00 99 1013.3
20260510071523 68 94 3.0 8.0 0.00 0.71 0.00 99 1013.5
20260510070523 69 353 8.0 10.0 0.00 0.71 0.00 98 1013.6
20260510065549 69 31 7.0 10.0 0.00 0.71 0.00 98 1013.5
20260510064524 69 29 7.0 10.0 0.00 0.71 0.00 98 1013.4
20260510063524 69 17 4.0 9.0 0.00 0.75 0.00 98 1013.5
20260510062534 69 56 3.0 9.0 0.00 0.75 0.00 98 1013.6
20260510061524 69 39 6.0 13.0 0.00 0.75 0.00 98 1013.7
20260510060522 69 25 7.0 12.0 0.00 0.75 0.00 98 1013.8
20260510055522 69 37 10.0 13.0 0.00 0.75 0.00 98 1014.0
20260510054528 69 344 4.0 6.0 0.00 0.75 0.00 98 1014.2
20260510053550 70 14 6.0 9.0 0.00 0.75 0.00 98 1014.2
20260510052525 70 38 4.0 9.0 0.00 0.75 0.00 98 1013.7
20260510051522 70 36 4.0 7.0 0.00 0.75 0.00 98 1013.7
20260510050522 70 98 6.0 8.0 0.00 0.75 0.00 98 1013.4
20260510045522 69 97 2.0 4.0 0.00 0.75 0.75 97 1013.8
20260510044526 69 63 4.0 9.0 0.00 0.75 0.75 97 1014.1
20260510043548 69 46 3.0 5.0 0.00 0.75 0.75 97 1014.3
20260510042548 69 15 3.0 6.0 0.00 0.75 0.75 97 1014.4
20260510041523 69 340 5.0 7.0 0.00 0.75 0.75 96 1014.4
20260510040523 69 29 7.0 9.0 0.00 0.75 0.75 96 1014.5
20260510035523 70 36 5.0 7.0 0.00 0.75 0.75 96 1014.8
20260510034523 70 31 6.0 7.0 0.00 0.76 0.75 95 1014.6
20260510033523 70 27 5.0 7.0 0.00 0.76 0.75 94 1014.5
20260510032523 71 31 4.0 5.0 0.00 0.76 0.75 93 1014.4
20260510031523 72 7 4.0 4.0 0.00 0.76 0.75 91 1014.4
20260510030549 72 102 2.0 3.0 0.00 0.76 0.75 91 1014.2
20260510025525 72 124 4.0 6.0 0.00 0.77 0.75 91 1014.0
20260510024614 72 106 4.0 6.0 0.00 0.77 0.75 92 1013.8
20260510023524 72 124 7.0 10.0 0.00 0.77 0.75 92 1013.6
20260510022521 72 129 7.0 9.0 0.00 0.78 0.75 91 1013.6
20260510021550 72 132 7.0 9.0 0.01 0.78 0.75 91 1013.7
20260510020524 72 139 7.0 8.0 0.01 0.79 0.75 91 1013.8
20260510015550 72 152 7.0 8.0 0.01 0.80 0.74 91 1014.1
20260510014522 72 153 6.0 7.0 0.00 0.80 0.74 91 1014.2
20260510013522 72 163 7.0 10.0 0.00 0.80 0.74 90 1014.1
20260510012525 72 166 6.0 8.0 0.00 0.80 0.74 90 1014.4
20260510011525 72 150 6.0 8.0 0.00 0.80 0.74 90 1014.4
20260510010522 72 149 8.0 12.0 0.00 0.80 0.74 89 1013.9
20260510005523 72 150 11.0 14.0 0.00 0.80 0.74 89 1013.4
20260510004523 72 144 11.0 14.0 0.00 0.80 0.74 89 1013.4
20260510003523 72 146 10.0 12.0 0.00 0.80 0.74 90 1013.3
20260510002523 71 137 9.0 11.0 0.00 0.82 0.74 91 1013.0
20260510001523 71 124 8.0 9.0 0.00 0.84 0.74 91 1013.2
20260510000548 71 115 7.0 9.0 0.01 0.87 0.74 92 1013.1
20260509235549 70 86 3.0 4.0 0.01 0.89 0.74 94 1013.2
20260509234523 70 68 2.0 4.0 0.01 0.89 0.74 93 1013.4
20260509233523 70 83 1.0 3.0 0.01 0.90 0.74 94 1013.4
20260509232523 70 3 2.0 4.0 0.01 0.90 0.74 93 1013.4
20260509231524 71 77 4.0 5.0 0.00 0.90 0.73 92 1013.2
20260509230521 71 33 2.0 3.0 0.00 0.89 0.73 91 1013.5
20260509225524 71 32 1.0 2.0 0.00 0.89 0.73 90 1013.3
20260509224524 72 102 4.0 5.0 0.00 0.89 0.73 88 1013.2
20260509223524 71 111 6.0 8.0 0.00 0.89 0.73 87 1012.9
20260509222546 71 110 5.0 7.0 0.00 0.89 0.73 88 1013.1
20260509221522 71 123 6.0 8.0 0.00 0.89 0.73 88 1013.0
20260509220525 71 133 6.0 8.0 0.00 0.89 0.73 88 1013.0